Total_Precipitation_Accumulation
2.49 3.22 3.89 4.37 4.98 5.73 6.28 6.19 5.59 5.19 4.78 4.30 3.85 3.90 3.83 3.61 3.37 3.16 2.95 2.94 2.88 2.75 2.82 2.56 2.74 2.41 2.47 2.64 2.79 3.14 3.35 3.32 3.29 3.58 3.63 3.16 2.68 2.68 2.62 2.52 2.79 2.82 2.81
2.52 3.30 3.87 3.99 3.97 4.23 4.46 3.96 3.79 3.83 3.56 3.40 3.44 3.43 3.33 3.04 2.89 2.91 3.15 2.82 2.82 2.71 2.52 2.70 2.51 2.48 2.72 2.76 2.91 3.17 3.29 3.26 3.34 3.53 3.88 3.61 3.51 2.96 2.22 2.44 2.58 2.68 2.92
2.59 3.11 3.25 3.23 3.07 3.01 3.00 2.78 2.76 3.10 3.13 3.23 3.32 3.34 3.34 3.17 3.02 2.88 3.05 2.75 2.56 2.52 2.59 2.54 2.62 2.81 2.52 2.78 2.99 3.03 3.28 3.39 3.26 3.23 3.67 3.66 3.57 3.06 2.40 2.25 2.33 2.56 2.87
2.55 2.59 2.15 1.95 2.04 2.12 2.24 2.51 2.63 2.80 2.76 2.93 2.91 2.85 2.65 2.55 2.50 2.51 2.68 2.79 2.53 2.40 2.42 2.56 2.88 3.04 2.78 3.00 2.56 2.75 3.12 3.35 3.27 3.27 3.05 2.90 2.98 3.17 3.03 2.58 2.31 2.44 2.57
1.60 1.53 1.41 1.39 1.57 1.82 2.07 2.41 2.55 2.63 2.57 2.57 2.69 2.89 2.82 2.84 2.73 2.69 2.98 3.02 3.04 2.83 2.49 2.49 2.79 2.99 2.99 3.09 2.92 3.15 2.96 2.91 2.93 3.03 3.03 2.96 2.81 2.59 2.80 2.84 2.65 2.51 2.21
0.97 1.07 1.18 1.39 1.64 1.80 1.88 2.10 2.28 2.50 2.53 2.56 2.64 2.68 2.75 2.95 2.95 2.95 2.83 2.71 2.83 2.81 2.56 2.54 2.87 2.92 2.95 3.13 3.01 2.99 2.86 2.90 2.92 2.82 2.72 2.99 2.97 2.77 2.85 2.61 2.56 2.48 2.00
0.84 1.03 1.19 1.41 1.52 1.59 1.58 1.74 1.82 2.04 2.29 2.38 2.41 2.49 2.64 2.79 2.79 2.89 2.84 2.73 2.52 2.39 2.50 2.65 2.98 2.94 2.93 2.91 3.00 2.93 2.94 3.03 3.06 2.91 2.73 2.73 2.76 2.80 2.80 2.74 2.40 2.26 2.00
0.77 0.88 1.07 1.15 1.22 1.37 1.56 1.73 1.71 1.71 1.78 1.89 2.11 2.26 2.29 2.41 2.46 2.80 2.71 2.67 2.52 2.37 2.47 2.62 2.60 2.59 2.68 2.59 2.90 2.72 2.71 2.85 2.90 2.74 3.07 2.96 2.58 2.73 2.79 2.92 3.12 2.88 2.55
0.85 0.84 0.87 1.08 1.16 1.07 1.16 1.37 1.49 1.58 1.66 1.72 1.92 1.94 1.92 2.02 2.26 2.34 2.22 2.08 2.18 2.29 2.42 2.45 2.52 2.55 2.56 2.60 2.83 2.74 2.76 2.95 2.78 2.76 3.18 2.98 2.60 2.59 2.67 2.88 3.22 3.49 3.08
0.80 0.88 0.90 0.97 1.02 1.00 1.16 1.29 1.40 1.52 1.59 1.60 1.69 1.56 1.67 1.76 1.98 2.09 2.08 1.98 1.93 2.12 2.28 2.35 2.45 2.51 2.48 2.57 2.74 2.60 2.79 2.87 2.77 2.79 2.88 2.81 2.59 2.63 2.72 2.90 3.14 3.42 3.35
0.70 0.83 0.85 0.93 0.95 0.93 1.04 1.22 1.43 1.53 1.44 1.44 1.46 1.55 1.65 1.82 1.91 1.90 1.95 1.97 1.98 2.10 2.23 2.33 2.41 2.43 2.46 2.61 2.71 2.55 2.70 2.70 2.81 2.74 2.70 2.65 2.87 2.93 2.77 2.93 3.06 3.29 3.52
0.78 0.86 0.86 0.89 0.89 0.89 0.95 1.08 1.28 1.44 1.48 1.46 1.53 1.67 1.76 1.86 1.93 1.85 1.93 2.14 2.17 2.20 2.28 2.38 2.48 2.39 2.48 2.64 2.58 2.56 2.62 2.68 2.67 2.77 2.96 2.89 3.06 3.08 3.03 3.22 3.22 3.30 3.55
0.77 0.81 0.94 0.89 0.85 0.90 0.95 1.08 1.35 1.54 1.73 1.81 1.78 1.81 1.80 1.87 1.99 2.05 2.08 2.19 2.29 2.34 2.32 2.30 2.38 2.53 2.70 2.72 2.56 2.55 2.54 2.46 2.37 2.55 2.82 3.12 3.58 3.43 3.26 3.15 3.08 3.11 3.19
0.72 0.84 0.97 1.06 1.13 1.15 1.15 1.27 1.44 1.53 1.69 1.71 1.73 1.85 1.91 2.05 2.19 2.27 2.32 2.36 2.34 2.34 2.41 2.48 2.50 2.58 2.62 2.58 2.57 2.61 2.61 2.56 2.42 2.43 2.55 2.72 3.03 3.18 3.32 3.12 3.02 3.10 3.19
0.89 0.93 1.06 1.21 1.30 1.38 1.36 1.33 1.41 1.47 1.64 2.01 2.20 2.35 2.35 2.38 2.50 2.57 2.54 2.57 2.53 2.44 2.65 2.69 2.66 2.65 2.60 2.42 2.61 2.74 2.62 2.70 2.60 2.53 2.46 2.30 2.43 2.62 2.82 2.68 3.00 3.19 3.14
1.08 1.20 1.26 1.34 1.39 1.45 1.54 1.57 1.60 1.70 1.89 2.34 2.69 2.80 2.82 2.83 2.87 2.90 2.88 2.88 2.83 2.96 3.01 2.87 2.81 2.74 2.48 2.65 2.70 2.72 2.74 2.83 2.74 2.63 2.57 2.38 2.23 2.21 2.34 2.42 2.64 2.91 2.94
1.07 1.16 1.30 1.43 1.48 1.57 1.64 1.75 1.84 1.93 2.08 2.35 2.57 2.66 2.75 2.84 3.02 3.04 3.04 3.02 3.03 3.07 3.08 3.13 3.09 2.96 3.02 3.03 2.68 2.62 2.61 2.65 2.62 2.77 2.84 2.40 2.01 2.22 2.18 2.27 2.29 2.22 2.38
1.09 1.18 1.25 1.46 1.60 1.77 1.98 2.24 2.37 2.46 2.46 2.55 2.71 2.81 2.78 2.82 2.89 2.89 2.81 2.82 2.96 2.99 2.94 2.88 2.82 2.77 2.75 2.83 2.56 2.50 2.37 2.38 2.39 2.43 2.45 2.40 2.24 2.17 2.19 2.16 2.02 1.86 1.86
1.29 1.46 1.61 1.69 1.81 1.94 2.11 2.35 2.63 2.79 2.79 2.70 2.79 2.92 3.01 3.09 3.00 2.91 2.90 2.92 3.00 2.89 2.84 2.79 2.78 2.68 2.64 2.70 2.50 2.46 2.27 2.22 2.13 2.11 2.12 2.13 2.00 2.08 2.05 1.95 1.89 1.82 1.71
1.42 1.57 1.72 1.82 1.86 2.02 2.13 2.25 2.45 2.57 2.64 2.69 2.80 2.93 3.03 3.20 3.30 3.24 3.25 3.18 3.11 3.05 3.01 2.95 2.93 2.85 2.77 2.89 2.63 2.49 2.27 2.23 2.22 2.31 2.27 2.22 2.05 2.04 1.93 1.76 1.77 1.63 1.52
1.37 1.43 1.49 1.65 1.72 1.80 1.94 2.14 2.25 2.24 2.33 2.42 2.46 2.65 2.89 3.12 3.27 3.36 3.35 3.34 3.26 3.18 2.98 2.81 2.75 2.69 2.69 2.82 2.62 2.46 2.22 2.21 2.31 2.39 2.43 2.36 2.26 1.96 1.81 1.67 1.58 1.57 1.71
1.34 1.35 1.45 1.57 1.66 1.81 2.10 2.33 2.32 2.27 2.31 2.41 2.54 2.69 2.91 3.01 3.04 3.15 3.21 3.34 3.30 3.19 3.09 2.84 2.63 2.52 2.36 2.31 2.31 2.16 2.05 2.10 2.20 2.28 2.40 2.43 2.35 2.08 1.94 1.78 1.64 1.70 1.67
1.40 1.35 1.39 1.54 1.77 2.02 2.28 2.51 2.50 2.54 2.60 2.64 2.73 2.81 2.90 3.00 3.07 3.14 3.14 3.14 3.10 2.93 2.82 2.67 2.56 2.47 2.39 2.32 2.15 1.90 1.82 1.86 1.88 2.01 2.37 2.48 2.34 2.12 1.85 1.76 1.76 1.70 1.56
1.44 1.42 1.43 1.55 1.76 1.89 2.02 2.26 2.42 2.48 2.66 2.67 2.59 2.58 2.59 2.66 2.74 2.85 2.88 2.84 2.76 2.69 2.61 2.51 2.43 2.33 2.28 2.20 2.11 1.95 1.79 1.76 1.75 1.76 1.98 2.10 2.06 1.87 1.72 1.64 1.56 1.48 1.49
1.54 1.54 1.59 1.68 1.73 1.76 1.83 1.96 2.16 2.32 2.51 2.64 2.66 2.70 2.69 2.71 2.76 2.83 2.92 2.80 2.64 2.61 2.49 2.34 2.37 2.34 2.19 2.16 2.17 2.00 1.82 1.75 1.83 1.84 1.83 1.90 1.99 1.97 1.89 1.87 1.80 1.72 1.65
1.62 1.68 1.75 1.79 1.79 1.77 1.87 1.98 2.15 2.40 2.67 2.68 2.61 2.64 2.71 2.80 2.89 2.94 2.96 3.02 2.75 2.65 2.50 2.38 2.31 2.22 2.09 2.00 1.89 1.83 1.76 1.67 1.66 1.57 1.58 1.78 1.96 2.08 2.09 2.13 2.09 1.99 1.91